Location: Chamerau
(49.1969°N, 12.7525°E)
Time: 22:59:40
(UTC+00:00)

Meteor 2-9 Rocket - Pass Details

Date: 18 September 2020
Orbit: 791 x 896 km, 81.3° (Epoch: 31 October)

Event Time Altitude Azimuth Distance (km) Brightness Sun altitude
Rises 17:51:07 0° 181° (S) 3,498 7.3 -6.7°
Reaches altitude 10° 17:53:34 10° 179° (S) 2,561 6.6 -7.1°
Maximum altitude 17:59:22 68° 98° (E) 959 4.3 -8.0°
Drops below altitude 10° 18:05:07 10° 16° (NNE) 2,543 6.7 -9.0°
Sets 18:07:34 0° 14° (NNE) 3,472 7.4 -9.3°
